SAS239 ESGG-EKCH

Flight info

Callsign SAS239
Flight time 0h 30m
Altitude 19000
Route TOPLA L996 ERNOV
Aircraft A320/M-SDE3FGHIRWY/LB1

Departure

Time 2026-04-22 20:56
Airport Göteborg Landvetter Airport (ESGG)

Arrival

Time 2026-04-22 21:26
Airport Copenhagen Kastrup Airport (EKCH)
Time Latitude Longitude Altitude Speed Heading
2026-04-22 20:24 57.66971 12.29503 516 ft 0 kts 116°
2026-04-22 20:47 57.66973 12.29497 516 ft 3 kts 116°
2026-04-22 20:47 57.66984 12.29452 516 ft 4 kts 115°
2026-04-22 20:47 57.66993 12.29417 516 ft 4 kts 110°
2026-04-22 20:48 57.66997 12.29375 516 ft 4 kts 54°
2026-04-22 20:48 57.66980 12.29353 516 ft 2 kts 26°
2026-04-22 20:48 57.66979 12.29353 516 ft 0 kts 26°
2026-04-22 20:52 57.66983 12.29356 516 ft 3 kts 26°
2026-04-22 20:52 57.67020 12.29390 516 ft 8 kts 26°
2026-04-22 20:52 57.67084 12.29449 516 ft 12 kts 26°
2026-04-22 20:52 57.67163 12.29520 516 ft 13 kts 26°
2026-04-22 20:53 57.67207 12.29517 516 ft 8 kts 319°
2026-04-22 20:53 57.67234 12.29405 516 ft 11 kts 309°
2026-04-22 20:53 57.67302 12.29421 516 ft 12 kts 27°
2026-04-22 20:53 57.67384 12.29493 516 ft 14 kts 24°
2026-04-22 20:54 57.67470 12.29572 516 ft 12 kts 25°
2026-04-22 20:54 57.67541 12.29581 516 ft 12 kts 325°
2026-04-22 20:54 57.67584 12.29440 516 ft 12 kts 295°
2026-04-22 20:54 57.67587 12.29271 516 ft 15 kts 259°
2026-04-22 20:55 57.67547 12.29129 516 ft 14 kts 207°
2026-04-22 20:55 57.67364 12.28964 515 ft 62 kts 206°
2026-04-22 20:55 57.66771 12.28423 513 ft 125 kts 206°
2026-04-22 20:55 57.65843 12.27580 625 ft 162 kts 206°
2026-04-22 20:56 57.64832 12.26657 1285 ft 163 kts 209°
2026-04-22 20:56 57.63798 12.25713 1854 ft 169 kts 209°
2026-04-22 20:56 57.62675 12.24699 2197 ft 188 kts 210°
2026-04-22 20:56 57.61447 12.23567 2571 ft 206 kts 206°
2026-04-22 20:57 57.59985 12.22927 2961 ft 227 kts 184°
2026-04-22 20:57 57.58333 12.22673 3326 ft 251 kts 184°
2026-04-22 20:57 57.56514 12.22446 3842 ft 272 kts 182°
2026-04-22 20:57 57.54573 12.22599 4576 ft 284 kts 167°
2026-04-22 20:58 57.52626 12.23371 5533 ft 289 kts 167°
2026-04-22 20:58 57.50629 12.24046 6472 ft 295 kts 170°
2026-04-22 20:58 57.48615 12.24527 7402 ft 297 kts 180°
2026-04-22 20:58 57.46526 12.24063 8261 ft 301 kts 192°
2026-04-22 20:59 57.44450 12.23792 9124 ft 308 kts 178°
2026-04-22 20:59 57.42292 12.24122 9820 ft 317 kts 175°
2026-04-22 20:59 57.40098 12.24525 10034 ft 317 kts 175°
2026-04-22 20:59 57.37893 12.24923 10479 ft 320 kts 175°
2026-04-22 21:00 57.35595 12.25339 10801 ft 344 kts 175°
2026-04-22 21:00 57.33136 12.25776 11091 ft 364 kts 175°
2026-04-22 21:00 57.30583 12.26220 11714 ft 372 kts 175°
2026-04-22 21:00 57.28000 12.26829 12437 ft 377 kts 167°
2026-04-22 21:01 57.25449 12.28044 13175 ft 381 kts 165°
2026-04-22 21:01 57.22875 12.29303 13922 ft 385 kts 164°
2026-04-22 21:01 57.20275 12.30581 14586 ft 389 kts 164°
2026-04-22 21:01 57.17651 12.31874 15260 ft 391 kts 164°
2026-04-22 21:02 57.15016 12.33170 15939 ft 393 kts 164°
2026-04-22 21:02 57.12327 12.34206 16607 ft 397 kts 171°
2026-04-22 21:02 57.09583 12.34897 17284 ft 399 kts 171°
2026-04-22 21:02 57.06825 12.35586 17967 ft 401 kts 171°
2026-04-22 21:03 57.04048 12.36279 18632 ft 404 kts 171°
2026-04-22 21:03 57.01255 12.36968 18873 ft 405 kts 171°
2026-04-22 21:03 56.98465 12.37651 19106 ft 405 kts 171°
2026-04-22 21:03 56.95699 12.38329 19217 ft 410 kts 171°
2026-04-22 21:04 56.92774 12.39050 19232 ft 424 kts 171°
2026-04-22 21:04 56.89839 12.39775 19241 ft 427 kts 171°
2026-04-22 21:04 56.86928 12.40497 19242 ft 429 kts 171°
2026-04-22 21:04 56.83968 12.41230 19234 ft 430 kts 171°
2026-04-22 21:05 56.81003 12.41962 19231 ft 430 kts 171°
2026-04-22 21:05 56.78037 12.42687 19232 ft 430 kts 171°
2026-04-22 21:05 56.75073 12.43409 19232 ft 430 kts 171°
2026-04-22 21:05 56.72103 12.44131 19226 ft 430 kts 171°
2026-04-22 21:06 56.69174 12.44841 19024 ft 419 kts 171°
2026-04-22 21:06 56.66326 12.45530 18786 ft 408 kts 171°
2026-04-22 21:06 56.63545 12.46204 18556 ft 400 kts 171°
2026-04-22 21:06 56.60792 12.46872 18295 ft 398 kts 171°
2026-04-22 21:07 56.58052 12.47533 18019 ft 396 kts 171°
2026-04-22 21:07 56.55327 12.48192 17688 ft 392 kts 171°
2026-04-22 21:07 56.52633 12.48846 17125 ft 390 kts 171°
2026-04-22 21:07 56.49949 12.49498 16563 ft 388 kts 171°
2026-04-22 21:08 56.47279 12.50146 15996 ft 386 kts 172°
2026-04-22 21:08 56.44598 12.50792 15218 ft 391 kts 172°
2026-04-22 21:08 56.41912 12.51435 14689 ft 388 kts 172°
2026-04-22 21:08 56.39280 12.52064 14159 ft 385 kts 172°
2026-04-22 21:09 56.36635 12.52695 13592 ft 382 kts 173°
2026-04-22 21:09 56.34012 12.53319 13061 ft 378 kts 173°
2026-04-22 21:09 56.31414 12.53939 12534 ft 375 kts 173°
2026-04-22 21:09 56.28843 12.54554 12025 ft 371 kts 173°
2026-04-22 21:10 56.26289 12.55162 11518 ft 369 kts 173°
2026-04-22 21:10 56.23790 12.55753 11371 ft 355 kts 173°
2026-04-22 21:10 56.21383 12.56322 11246 ft 343 kts 173°
2026-04-22 21:10 56.19057 12.56860 11110 ft 331 kts 175°
2026-04-22 21:11 56.16792 12.56811 10909 ft 322 kts 190°
2026-04-22 21:11 56.14657 12.55869 10798 ft 314 kts 204°
2026-04-22 21:11 56.12619 12.54459 10625 ft 314 kts 205°
2026-04-22 21:11 56.10584 12.53062 10440 ft 313 kts 204°
2026-04-22 21:12 56.08546 12.51676 10255 ft 313 kts 204°
2026-04-22 21:12 56.06513 12.50299 10065 ft 312 kts 204°
2026-04-22 21:12 56.04484 12.48926 9874 ft 311 kts 204°
2026-04-22 21:12 56.02490 12.47574 9696 ft 310 kts 204°
2026-04-22 21:13 56.00475 12.46207 9511 ft 309 kts 204°
2026-04-22 21:13 55.98465 12.44842 9332 ft 308 kts 205°
2026-04-22 21:13 55.96465 12.43489 9150 ft 307 kts 204°
2026-04-22 21:13 55.94384 12.42598 8886 ft 309 kts 184°
2026-04-22 21:14 55.92254 12.43087 8823 ft 312 kts 161°
2026-04-22 21:14 55.90283 12.45090 8755 ft 342 kts 136°
2026-04-22 21:14 55.88588 12.48155 8668 ft 351 kts 131°
2026-04-22 21:14 55.86898 12.51308 8581 ft 352 kts 131°
2026-04-22 21:15 55.85218 12.54479 8481 ft 352 kts 130°
2026-04-22 21:15 55.83554 12.57658 8230 ft 349 kts 130°
2026-04-22 21:15 55.81902 12.60816 8055 ft 349 kts 130°
2026-04-22 21:15 55.80251 12.63976 7880 ft 349 kts 130°
2026-04-22 21:16 55.78599 12.67140 7705 ft 348 kts 130°
2026-04-22 21:16 55.76954 12.70292 7529 ft 348 kts 130°
2026-04-22 21:16 55.75311 12.73438 7363 ft 347 kts 130°
2026-04-22 21:16 55.73576 12.76420 7186 ft 348 kts 138°
2026-04-22 21:17 55.71681 12.79065 7015 ft 343 kts 141°
2026-04-22 21:17 55.69815 12.81565 6844 ft 331 kts 141°
2026-04-22 21:17 55.68005 12.83977 6673 ft 320 kts 141°
2026-04-22 21:17 55.66271 12.86283 6446 ft 313 kts 141°
2026-04-22 21:18 55.64547 12.88573 6188 ft 307 kts 141°
2026-04-22 21:18 55.62854 12.90822 5934 ft 302 kts 141°
2026-04-22 21:18 55.61189 12.93035 5663 ft 297 kts 141°
2026-04-22 21:18 55.59549 12.95219 5430 ft 293 kts 141°
2026-04-22 21:19 55.57935 12.97361 5175 ft 289 kts 141°
2026-04-22 21:19 55.56337 12.99477 4926 ft 285 kts 141°
2026-04-22 21:19 55.54758 13.01561 4682 ft 281 kts 143°
2026-04-22 21:19 55.53022 13.02930 4583 ft 269 kts 173°
2026-04-22 21:20 55.51202 13.02964 4539 ft 259 kts 188°
2026-04-22 21:20 55.49556 13.02110 4464 ft 237 kts 219°
2026-04-22 21:20 55.48519 13.00127 4367 ft 208 kts 257°
2026-04-22 21:20 55.48522 12.97843 4261 ft 178 kts 303°
2026-04-22 21:21 55.49413 12.96543 4087 ft 169 kts 340°
2026-04-22 21:21 55.50460 12.95630 3890 ft 169 kts 314°
2026-04-22 21:21 55.51102 12.93783 3729 ft 197 kts 297°
2026-04-22 21:21 55.51551 12.91192 3733 ft 237 kts 286°
2026-04-22 21:22 55.51907 12.88639 3759 ft 221 kts 298°
2026-04-22 21:22 55.52822 12.86458 3330 ft 226 kts 319°
2026-04-22 21:22 55.54073 12.84808 2639 ft 224 kts 326°
2026-04-22 21:22 55.55298 12.83160 2036 ft 211 kts 317°
2026-04-22 21:23 55.56164 12.81336 1689 ft 193 kts 307°
2026-04-22 21:23 55.56816 12.79368 1389 ft 181 kts 297°
2026-04-22 21:23 55.57330 12.77393 1325 ft 175 kts 302°
2026-04-22 21:23 55.58013 12.75735 1230 ft 158 kts 311°
2026-04-22 21:24 55.58636 12.74221 979 ft 146 kts 306°
2026-04-22 21:24 55.59139 12.72791 815 ft 131 kts 304°
2026-04-22 21:24 55.59625 12.71451 593 ft 128 kts 306°
2026-04-22 21:24 55.60117 12.70164 455 ft 125 kts 302°
2026-04-22 21:25 55.60569 12.68855 313 ft 124 kts 303°
2026-04-22 21:25 55.61044 12.67592 168 ft 124 kts 305°
2026-04-22 21:25 55.61519 12.66329 25 ft 122 kts 306°
2026-04-22 21:25 55.61921 12.65257 16 ft 86 kts 302°
2026-04-22 21:26 55.62161 12.64608 18 ft 39 kts 304°
2026-04-22 21:26 55.62329 12.64432 17 ft 11 kts 27°
2026-04-22 21:26 55.62419 12.64468 17 ft 17 kts
2026-04-22 21:26 55.62504 12.64489 17 ft 7 kts
2026-04-22 21:27 55.62553 12.64508 17 ft 4 kts 15°
2026-04-22 21:27 55.62562 12.64512 17 ft 1 kts 15°
2026-04-22 21:27 55.62563 12.64512 17 ft 0 kts 15°